Location: Peterborough
(44.3091°N, 78.3197°W)
Time: 02:56:24
(UTC-04:00)

Tiros 1 despin weight - Pass Details

Date: 29 March 2023
Orbit: 586 x 632 km, 48.2° (Epoch: 08 June)

Event Time Altitude Azimuth Distance (km) Brightness Sun altitude
Rises 19:26:28 0° 208° (SSW) 2,796 ? 1.0°
Reaches altitude 10° 19:29:03 10° 195° (SSW) 1,898 ? 0.5°
Maximum altitude 19:32:35 25° 140° (SE) 1,206 ? -0.1°
Drops below altitude 10° 19:36:08 10° 85° (E) 1,909 ? -0.7°
Sets 19:38:43 0° 72° (ENE) 2,817 ? -1.2°
